sat.trackr.live / text

‹ back to catalog

STARLINK-4567

NORAD 53970 · 2022-125G

PAYLOAD ACTIVE UNKNOWN

§ Identity

Operator
Country
US
Launch date
2022-10-05
Launch site
AFWTR
Launch vehicle
Mass (kg)
RCS (m²)

Purposes: comms

External: N2YO · Heavens-Above · Gunter

§ Orbital elements

Epoch: 2026-05-25T05:01:05.767392Z

Period
95.44 min
Inclination
53.2117°
Eccentricity
0.0001494
Mean motion
15.08837622 rev/d
Perigee alt
538.7 km
Apogee alt
540.8 km
Semi-major
6,917.9 km
B*
-6.7551e-6
RAAN
235.6524°
Arg perigee
77.4900°
Mean anomaly
282.6260°
Rev number
20,095

§ Raw data

STARLINK-45671 53970U 22125G   26145.20909453 -.00000395  00000+0 -67551-5 0  99932 53970  53.2117 235.6524 0001494  77.4900 282.6260 15.08837622200951

JSON: /api/v1/satellites/53970 · /tle

For live sub-satellite position, see the globe view (requires WebGL).

§ Visibility from observer

Set your observer location to see the next 7 days of passes ≥ 10°. The values pass through the URL so the page stays shareable.

No JS? Fill the form by hand. The geolocation button needs JavaScript.